K5RWS Weather Reports


time (UTC)temp
C
wind
direction
speed
KPH
gust
KPH
rain 1hr
cm
rain 24hr
cm
rain mn
cm
humidity
%
barometer
mb
20260505171637 14 59 4.8 6.4 0.00 0.00 0.00 39 1014.0
20260505171135 14 347 4.8 12.9 0.00 0.00 0.00 40 1014.2
20260505170632 14 212 0.0 6.4 0.00 0.00 0.00 41 1014.3
20260505170128 16 276 4.8 11.3 0.00 0.00 0.00 41 1014.3
20260505165623 15 133 0.0 3.2 0.00 0.00 0.00 42 1014.3
20260505165120 15 58 8.0 9.7 0.00 0.00 0.00 42 1014.2
20260505164615 14 52 4.8 6.4 0.00 0.00 0.00 42 1014.5
20260505164113 13 304 8.0 11.3 0.00 0.00 0.00 42 1014.3
20260505163611 13 272 4.8 11.3 0.00 0.00 0.00 43 1014.5
20260505163108 13 326 9.7 12.9 0.00 0.00 0.00 44 1014.3
20260505162606 13 321 6.4 14.5 0.00 0.00 0.00 44 1014.5
20260505162103 13 307 9.7 14.5 0.00 0.00 0.00 45 1014.5
20260505161600 12 304 11.3 17.7 0.00 0.00 0.00 45 1014.5
20260505161058 13 304 8.0 11.3 0.00 0.00 0.00 45 1014.8
20260505160555 12 316 6.4 16.1 0.00 0.00 0.00 46 1014.8
20260505153032 12 279 9.7 24.1 0.00 0.00 0.00 50 1015.2
20260505152529 11 323 17.7 29.0 0.00 0.00 0.00 51 1015.4
20260505152024 12 285 17.7 29.0 0.00 0.00 0.00 52 1015.3
20260505151519 11 292 17.7 27.4 0.00 0.00 0.00 54 1015.3
20260505151017 11 299 17.7 22.5 0.00 0.00 0.00 56 1015.2
20260505150513 11 264 14.5 20.9 0.00 0.00 0.00 58 1015.3
20260505140438 12 302 11.3 20.9 0.00 0.00 0.00 52 1015.4
20260505124852 13 201 0.0 0.0 0.00 0.00 0.00 38 1014.2
20260505124349 13 201 0.0 0.0 0.00 0.00 0.00 38 1014.5
20260505123845 13 201 0.0 0.0 0.00 0.00 0.00 38 1014.6
20260505123342 13 204 0.0 1.6 0.00 0.00 0.00 38 1014.6
20260505122837 13 267 1.6 3.2 0.00 0.00 0.00 37 1014.6
20260505122335 13 246 1.6 3.2 0.00 0.00 0.00 37 1014.3
20260505121832 13 301 3.2 3.2 0.00 0.00 0.00 37 1014.2
20260505121329 13 281 3.2 3.2 0.00 0.00 0.00 36 1014.2
20260505120825 13 280 3.2 6.4 0.00 0.00 0.00 36 1014.2
20260505120321 13 267 3.2 9.7 0.00 0.00 0.00 35 1014.1
20260505115819 13 266 3.2 6.4 0.00 0.00 0.00 36 1014.0
20260505115317 13 263 3.2 6.4 0.00 0.00 0.00 35 1014.1
20260505114815 13 294 3.2 4.8 0.00 0.00 0.00 35 1014.3
20260505114311 13 288 1.6 4.8 0.00 0.00 0.00 35 1014.2
20260505113808 13 270 0.0 3.2 0.00 0.00 0.00 35 1014.0
20260505113304 13 290 1.6 4.8 0.00 0.00 0.00 35 1014.0
20260505112800 13 284 1.6 1.6 0.00 0.00 0.00 35 1014.0
20260505112258 13 271 0.0 1.6 0.00 0.00 0.00 35 1014.0
20260505111758 14 244 0.0 6.4 0.00 0.00 0.00 35 1013.9
20260505111254 13 291 4.8 11.3 0.00 0.00 0.00 35 1014.0
20260505110750 13 258 4.8 6.4 0.00 0.00 0.00 35 1013.9
20260505110248 14 253 4.8 9.7 0.00 0.00 0.00 34 1014.2
20260505101722 14 253 4.8 9.7 0.00 0.00 0.00 33 1014.1
20260505101218 14 248 3.2 6.4 0.00 0.00 0.00 33 1014.2
20260505100714 14 222 1.6 3.2 0.00 0.00 0.00 34 1014.1
20260505100211 14 204 0.0 1.6 0.00 0.00 0.00 34 1014.0
20260505095707 15 239 3.2 3.2 0.00 0.00 0.00 33 1014.1
20260505095205 15 242 3.2 6.4 0.00 0.00 0.00 33 1013.9
20260505094700 15 283 12.9 16.1 0.00 0.00 0.00 33 1014.0
20260505094157 14 242 8.0 9.7 0.00 0.00 0.00 33 1014.1
20260505093653 13 265 3.2 4.8 0.00 0.00 0.00 35 1013.9
20260505093151 14 221 3.2 4.8 0.00 0.00 0.00 35 1013.9
20260505092647 14 201 1.6 3.2 0.00 0.00 0.00 35 1014.0
20260505092146 14 192 1.6 1.6 0.00 0.00 0.00 35 1014.2
20260505091643 14 196 0.0 0.0 0.00 0.00 0.00 34 1014.2
20260505091141 15 214 0.0 0.0 0.00 0.00 0.00 33 1014.2
20260505090638 15 289 0.0 1.6 0.00 0.00 0.00 33 1014.1
20260505090137 15 291 1.6 3.2 0.00 0.00 0.00 33 1014.2
20260505085633 15 271 1.6 4.8 0.00 0.00 0.00 33 1014.2
20260505085132 15 281 6.4 6.4 0.00 0.00 0.00 32 1014.0
20260505084629 15 241 8.0 9.7 0.00 0.00 0.00 32 1014.2
20260505084128 15 277 8.0 9.7 0.00 0.00 0.00 32 1014.6
20260505083625 15 255 8.0 11.3 0.00 0.00 0.00 31 1014.7
20260505083121 15 296 4.8 9.7 0.00 0.00 0.00 32 1014.6
20260505082616 15 294 6.4 6.4 0.00 0.00 0.00 32 1014.7
20260505082114 16 286 9.7 12.9 0.00 0.00 0.00 31 1014.9
20260505081610 16 290 6.4 12.9 0.00 0.00 0.00 31 1014.7
20260505081108 15 261 6.4 12.9 0.00 0.00 0.00 31 1014.9
20260505080603 16 286 9.7 11.3 0.00 0.00 0.00 31 1014.8
20260505080100 16 271 4.8 14.5 0.00 0.00 0.00 31 1014.8
20260505075556 16 286 9.7 11.3 0.00 0.00 0.00 31 1015.0
20260505075053 16 283 11.3 16.1 0.00 0.00 0.00 30 1015.0
20260505074550 16 297 9.7 22.5 0.00 0.00 0.00 30 1014.8
20260505074047 16 239 11.3 16.1 0.00 0.00 0.00 30 1014.9
20260505073544 16 262 9.7 20.9 0.00 0.00 0.00 29 1014.6
20260505073043 16 282 20.9 24.1 0.00 0.00 0.00 29 1014.5
20260505072538 16 229 16.1 20.9 0.00 0.00 0.00 29 1014.5
20260505072035 17 257 12.9 20.9 0.00 0.00 0.00 29 1014.6
20260505071530 17 247 9.7 16.1 0.00 0.00 0.00 29 1014.5
20260505071029 17 262 14.5 25.7 0.00 0.00 0.00 28 1014.7
20260505070526 17 261 20.9 25.7 0.00 0.00 0.00 28 1014.7
20260505070022 16 270 16.1 20.9 0.00 0.00 0.00 28 1014.6
20260505065518 16 271 9.7 14.5 0.00 0.00 0.00 27 1014.3
20260505065015 17 264 11.3 14.5 0.00 0.00 0.00 27 1014.2
20260505064512 17 254 9.7 14.5 0.00 0.00 0.00 27 1014.1
20260505064010 17 276 9.7 12.9 0.00 0.00 0.00 27 1014.1
20260505063507 17 235 11.3 16.1 0.00 0.00 0.00 27 1014.2
20260505063008 17 277 8.0 14.5 0.00 0.00 0.00 26 1014.1
20260505062505 17 255 9.7 16.1 0.00 0.00 0.00 26 1014.1
20260505062002 17 247 8.0 16.1 0.00 0.00 0.00 26 1014.2
20260505061500 17 248 11.3 20.9 0.00 0.00 0.00 26 1013.9
20260505060957 17 286 14.5 17.7 0.00 0.00 0.00 25 1014.0
20260505060454 17 254 9.7 17.7 0.00 0.00 0.00 25 1013.9
20260505055950 17 257 9.7 17.7 0.00 0.00 0.00 24 1014.0
20260505055446 17 266 9.7 14.5 0.00 0.00 0.00 24 1013.9
20260505054943 18 262 14.5 17.7 0.00 0.00 0.00 24 1014.0
20260505054441 18 273 11.3 14.5 0.00 0.00 0.00 24 1014.1
20260505053939 18 252 11.3 14.5 0.00 0.00 0.00 23 1014.1
20260505053436 18 245 9.7 16.1 0.00 0.00 0.00 23 1014.1
20260505052932 18 266 11.3 16.1 0.00 0.00 0.00 23 1014.0
20260505052429 18 260 9.7 20.9 0.00 0.00 0.00 23 1013.9
20260505051926 18 248 16.1 22.5 0.00 0.00 0.00 22 1013.9
20260505051423 18 264 11.3 14.5 0.00 0.00 0.00 23 1014.0
20260505050922 18 231 8.0 16.1 0.00 0.00 0.00 23 1014.1
20260505050420 18 242 9.7 20.9 0.00 0.00 0.00 22 1013.9
20260505041347 18 257 4.8 6.4 0.00 0.00 0.00 24 1013.8
20260505040844 18 251 4.8 4.8 0.00 0.00 0.00 24 1013.8
20260505040342 19 247 1.6 6.4 0.00 0.00 0.00 24 1013.4
20260505035838 19 220 1.6 6.4 0.00 0.00 0.00 24 1013.6
20260505035334 19 232 4.8 6.4 0.00 0.00 0.00 24 1013.4
20260505034832 20 221 6.4 9.7 0.00 0.00 0.00 24 1013.6
20260505034328 20 266 6.4 11.3 0.00 0.00 0.00 23 1013.5
20260505033825 20 255 12.9 14.5 0.00 0.00 0.00 23 1013.2
20260505033322 20 271 11.3 17.7 0.00 0.00 0.00 23 1013.3
20260505032820 20 273 6.4 14.5 0.00 0.00 0.00 23 1013.2
20260505032316 20 284 9.7 12.9 0.00 0.00 0.00 23 1013.2
20260505031814 20 262 8.0 12.9 0.00 0.00 0.00 22 1013.1
20260505031310 20 261 11.3 17.7 0.00 0.00 0.00 22 1013.1
20260505030807 20 281 9.7 16.1 0.00 0.00 0.00 22 1012.7
20260505030303 20 277 16.1 17.7 0.00 0.00 0.00 22 1012.8
20260505025758 20 291 17.7 20.9 0.00 0.00 0.00 22 1013.1
20260505025256 20 241 16.1 24.1 0.00 0.00 0.00 21 1012.8
20260505024755 20 262 17.7 25.7 0.00 0.00 0.00 21 1012.9
20260505024252 21 273 19.3 25.7 0.00 0.00 0.00 21 1012.7
20260505023749 21 264 20.9 35.4 0.00 0.00 0.00 21 1012.6
20260505023246 21 246 19.3 29.0 0.00 0.00 0.00 21 1012.7
20260505022743 21 276 20.9 30.6 0.00 0.00 0.00 21 1012.7
20260505022240 21 263 19.3 24.1 0.00 0.00 0.00 20 1012.8
20260505021737 21 281 14.5 24.1 0.00 0.00 0.00 20 1012.6
20260505021234 21 256 12.9 22.5 0.00 0.00 0.00 20 1012.7
20260505020730 21 283 20.9 27.4 0.00 0.00 0.00 20 1012.6
20260505020225 21 254 14.5 22.5 0.00 0.00 0.00 20 1012.6
20260505015723 21 298 24.1 27.4 0.00 0.00 0.00 20 1012.2
20260505015220 21 268 14.5 17.7 0.00 0.00 0.00 21 1012.0
20260505014716 21 284 12.9 16.1 0.00 0.00 0.00 21 1012.1
20260505014214 21 271 14.5 20.9 0.00 0.00 0.00 20 1012.1
20260505013710 21 272 14.5 17.7 0.00 0.00 0.00 20 1012.2
20260505013208 21 296 16.1 17.7 0.00 0.00 0.00 20 1012.2
20260505012706 22 263 16.1 20.9 0.00 0.00 0.00 20 1012.1
20260505012203 22 242 12.9 20.9 0.00 0.00 0.00 20 1011.8
20260505011658 22 278 14.5 29.0 0.00 0.00 0.00 19 1011.8
20260505011156 22 265 17.7 30.6 0.00 0.00 0.00 19 1011.8
20260505010651 22 243 14.5 20.9 0.00 0.00 0.00 18 1011.9
20260505010148 22 305 14.5 24.1 0.00 0.00 0.00 18 1011.9
20260505005644 22 279 16.1 24.1 0.00 0.00 0.00 17 1012.0
20260505005141 22 245 6.4 12.9 0.00 0.00 0.00 17 1012.0
20260505004638 23 270 11.3 17.7 0.00 0.00 0.00 16 1012.0
20260505004135 23 256 6.4 14.5 0.00 0.00 0.00 16 1012.0
20260505003632 23 287 14.5 17.7 0.00 0.00 0.00 15 1012.0
20260505003130 23 280 14.5 20.9 0.00 0.00 0.00 16 1012.2
20260505002626 23 237 11.3 25.7 0.00 0.00 0.00 15 1012.1
20260505002124 23 251 12.9 16.1 0.00 0.00 0.00 15 1012.0
20260505001621 23 195 9.7 20.9 0.00 0.00 0.00 15 1012.0
20260505001118 23 223 17.7 24.1 0.00 0.00 0.00 15 1012.1
20260505000616 23 250 11.3 22.5 0.00 0.00 0.00 15 1012.1
20260505000113 23 252 17.7 20.9 0.00 0.00 0.00 13 1011.9
20260504235609 23 236 12.9 20.9 0.00 0.00 0.00 14 1012.0
20260504235106 23 206 14.5 25.7 0.00 0.00 0.00 14 1011.9
20260504234603 23 230 14.5 22.5 0.00 0.00 0.00 14 1012.0
20260504234101 23 236 9.7 17.7 0.00 0.00 0.00 13 1012.2
20260504233601 23 250 16.1 24.1 0.00 0.00 0.00 13 1012.2
20260504233058 23 260 12.9 17.7 0.00 0.00 0.00 13 1012.2
20260504232555 23 239 14.5 24.1 0.00 0.00 0.00 13 1012.3
20260504232053 23 226 14.5 22.5 0.00 0.00 0.00 13 1012.2
20260504231549 23 244 9.7 17.7 0.00 0.00 0.00 13 1012.3
20260504231045 23 242 12.9 22.5 0.00 0.00 0.00 13 1012.0
20260504230541 23 231 11.3 25.7 0.00 0.00 0.00 13 1012.3
20260504230041 23 207 14.5 24.1 0.00 0.00 0.00 13 1012.2
20260504225537 23 237 22.5 29.0 0.00 0.00 0.00 13 1012.0
20260504225034 23 246 9.7 24.1 0.00 0.00 0.00 13 1012.2
20260504224531 23 225 17.7 29.0 0.00 0.00 0.00 12 1012.3
20260504224028 23 249 12.9 25.7 0.00 0.00 0.00 13 1012.1
20260504223525 24 207 14.5 22.5 0.00 0.00 0.00 12 1012.3
20260504223020 24 255 19.3 27.4 0.00 0.00 0.00 12 1012.2
20260504222517 24 220 19.3 24.1 0.00 0.00 0.00 12 1012.5
20260504222015 24 237 14.5 20.9 0.00 0.00 0.00 13 1012.3
20260504221512 23 267 14.5 29.0 0.00 0.00 0.00 13 1012.3
20260504221009 24 240 14.5 33.8 0.00 0.00 0.00 13 1012.6
20260504220505 23 229 12.9 27.4 0.00 0.00 0.00 14 1012.3
20260504220002 23 206 17.7 29.0 0.00 0.00 0.00 14 1012.8
20260504215459 24 221 14.5 27.4 0.00 0.00 0.00 13 1012.8
20260504214956 24 217 8.0 16.1 0.00 0.00 0.00 14 1012.9
20260504214452 24 204 4.8 16.1 0.00 0.00 0.00 14 1012.8
20260504213949 24 228 16.1 22.5 0.00 0.00 0.00 14 1012.9
20260504213444 24 231 9.7 16.1 0.00 0.00 0.00 15 1013.1
20260504212942 23 233 8.0 20.9 0.00 0.00 0.00 15 1013.1
20260504212438 24 243 17.7 22.5 0.00 0.00 0.00 15 1013.2
20260504211936 23 250 11.3 14.5 0.00 0.00 0.00 15 1013.2
20260504211432 24 255 4.8 11.3 0.00 0.00 0.00 16 1013.1
20260504210930 24 239 9.7 14.5 0.00 0.00 0.00 16 1013.3
20260504210426 24 280 6.4 9.7 0.00 0.00 0.00 16 1013.5
20260504205923 23 203 9.7 14.5 0.00 0.00 0.00 16 1013.6
20260504205421 23 216 8.0 22.5 0.00 0.00 0.00 17 1013.9
20260504204919 23 206 16.1 29.0 0.00 0.00 0.00 16 1014.2
20260504204417 23 251 12.9 25.7 0.00 0.00 0.00 17 1014.3
20260504203916 23 239 16.1 24.1 0.00 0.00 0.00 17 1014.2
20260504203413 23 234 14.5 17.7 0.00 0.00 0.00 17 1014.5
20260504202909 22 219 9.7 14.5 0.00 0.00 0.00 18 1014.6
20260504202406 23 269 17.7 25.7 0.00 0.00 0.00 17 1014.8
20260504201902 23 260 11.3 16.1 0.00 0.00 0.00 17 1014.7
20260504201400 23 241 20.9 30.6 0.00 0.00 0.00 16 1014.8
20260504200857 23 202 11.3 17.7 0.00 0.00 0.00 18 1014.9
20260504200354 23 205 11.3 24.1 0.00 0.00 0.00 17 1014.7
20260504195850 23 250 8.0 9.7 0.00 0.00 0.00 17 1014.9
20260504195346 23 343 3.2 4.8 0.00 0.00 0.00 17 1014.9
20260504194843 22 243 12.9 22.5 0.00 0.00 0.00 18 1015.2
20260504194339 23 257 9.7 17.7 0.00 0.00 0.00 18 1015.4
20260504193835 23 190 4.8 6.4 0.00 0.00 0.00 18 1015.2
20260504193332 23 159 8.0 14.5 0.00 0.00 0.00 20 1015.4
20260504192831 22 153 6.4 11.3 0.00 0.00 0.00 18 1015.5
20260504192329 22 237 11.3 25.7 0.00 0.00 0.00 18 1015.5
20260504191827 22 230 9.7 20.9 0.00 0.00 0.00 18 1015.7
20260504191324 22 224 6.4 9.7 0.00 0.00 0.00 19 1015.7
20260504190819 22 170 3.2 4.8 0.00 0.00 0.00 20 1015.6
20260504190316 21 249 9.7 20.9 0.00 0.00 0.00 19 1016.0
20260504185812 22 174 8.0 17.7 0.00 0.00 0.00 20 1015.9
20260504185309 22 157 9.7 14.5 0.00 0.00 0.00 20 1016.0
20260504184805 22 235 6.4 17.7 0.00 0.00 0.00 21 1016.1
20260504184301 21 231 8.0 14.5 0.00 0.00 0.00 20 1016.2
20260504183757 21 217 6.4 12.9 0.00 0.00 0.00 20 1016.4
20260504183254 21 268 9.7 22.5 0.00 0.00 0.00 20 1016.3
20260504182752 21 185 8.0 11.3 0.00 0.00 0.00 21 1016.4
20260504182249 21 218 9.7 20.9 0.00 0.00 0.00 20 1016.6
20260504181747 21 256 17.7 24.1 0.00 0.00 0.00 20 1016.4
20260504181244 21 232 12.9 16.1 0.00 0.00 0.00 19 1016.3
20260504180743 21 230 12.9 24.1 0.00 0.00 0.00 20 1016.6
20260504180241 21 247 8.0 12.9 0.00 0.00 0.00 19 1016.4
20260504175739 21 217 9.7 12.9 0.00 0.00 0.00 19 1016.8
20260504175235 20 185 11.3 17.7 0.00 0.00 0.00 19 1016.9
20260504174733 20 243 9.7 14.5 0.00 0.00 0.00 22 1016.7
20260504174231 21 217 4.8 17.7 0.00 0.00 0.00 22 1016.8
20260504173727 20 282 9.7 12.9 0.00 0.00 0.00 21 1016.9
20260504173224 20 212 14.5 20.9 0.00 0.00 0.00 21 1017.0
20260504172721 20 236 17.7 22.5 0.00 0.00 0.00 20 1016.9
20260504172217 20 262 9.7 12.9 0.00 0.00 0.00 20 1017.0
20260504171714 20 227 9.7 20.9 0.00 0.00 0.00 21 1017.2